Torna al catalogo

STARLINK-35477

AttivoComunicazioniVLEO
NORAD 66338·PAYLOAD·🇺🇸 United States

Lanciato Nov 6, 2025 da Cape Canaveral Space Force Station

Loading…

Prossimi Passaggi (prossime 24 ore)

TLE

AggiornatoSource: CelesTrak SupGP

Epoca: Sep 15, 2026, 04:10 UTC

1 66338C 25253V   26258.17409722 -.00040851  00000+0 -14798-2 0  2586
2 66338  43.0021 222.3070 0001371 271.3735 130.0807 15.27595530    16

Traccia STARLINK-35477 in tempo reale con AllMySat

Download on the App Store